FENGYUN 1C DEB, 30156

Orbit data source: Space-Track

FENGYUN 1C DEB, 30156 is space debris in SSO originally from a launch on Mon, 10 May 1999 UTC launched from the Taiyaun Space Center, China (TSC). Fengyun 1C debris stems from the Chinese weather satellite Fengyun-1C, which was intentionally destroyed by a Chinese anti-satellite missile in 2007. This event dramatically increased the amount of space debris, with thousands of trackable fragments posing hazards to satellites and human spaceflight. The Fengyun 1C debris cloud has become a focal point in discussions about space sustainability and the need for international regulations to prevent the creation of new debris.

Loading next visibility...
Identifier
30156, 1999-025TM
Orbit
SSO
Country
Flag of CNCN / PRC
Related business
Manufacturer
Unknown
Mission
Spacecraft
Bus & Motor
Unknown
Mass
Unknown
Launch date (UTC)
1999-05-10 (27 years ago)
Launch vehicle
Unknown
Launch site
Taiyaun Space Center, China (TSC)
Object type
Payload
Rocket body
Debris
Shape & HBR
Unknown shape, 0.1 m
Radar Cross Section
Small (<0.1 m²)

Expand to show TLE details & history
Last TLE update: 4 hours ago

TLE from 4 hours ago
0 FENGYUN 1C DEB
1 30156U 99025TM  26124.49488281  .00001259  00000-0  10579-2 0  9990
2 30156  98.9288  88.7409 0196586 239.2900 245.1480 13.81343040966616
Epoch: 2026-05-04T11:52Z
TLE epoch observation values (Epoch: 2026-05-04T11:52:37.874Z)
Latitude
56.60404°
Longitude
-118.08593°
Altitude
1,031.475 km
Speed
7.31 km/s
True Right ascension
18h 49m 49s
True Declination
56° 27' 06"
Sunlit
Object was in daylight at epoch
Visualization orbit readout
Latitude
Unknown
Longitude
Unknown
Altitude
Unknown
Speed
Unknown
Apparent Right ascension
Unknown
Apparent Declination
Unknown
Sunlit
N/A
Visualization observer readout
Local Sidereal Time
23:51:06
Azimuth
Unknown
Elevation
Unknown
Doppler factor
Unknown
Orbital elements
Apogee altitude
1,100.532 km
Perigee altitude
812.161 km
Semi-major axis
7,334.483 km
Eccentricity
0.01966
Inclination
98.9288°
RAAN
88.7409°
Arg. of periapsis
239.29°
True anomaly
243.12522°
Mean anomaly
245.148°
Eccentric anomaly
244.13448°
Mean motion
3.45532 °/min
Orbital period
104.19 mins
BSTAR
0.0010579
Loading maneuver chart data...
Computing Atmospheric mass density...
Loading historical data...
Loading historical data...
Loading historical data...
Loading historical data...
Loading historical data...
Loading historical data...
Loading historical data...

Documentation

Showing up to 5 results
|